Today is Thursday,
August 21st, 2014
User not logged in!
  [Run Race Header Image]  Run Race logo

  
Race webcasting is attempted by race directors and their support staff. Please remember that the conditions under which they're working may make it difficult to post timely webcast updates... your interest and patience is appreciated!
Race Information
Race Name:Kettle 100 Endurance Runs - 2010
Location:LaGrange
State:Wisconsin, United States
 
Event Information
Name of Event:Kettle 100 solo
Distance:100.00
Measurement:Miles
Date:Saturday June 5th, 2010
 
Checkpoint:Scuppernong Turnaround
Distance:31.600 Miles
Gun Start Time:Saturday June 5th, 2010 5:59:50.25 am
Calculate Chip Start Time:< not set >
Y or N... Calculate splits based upon participant chip start time?
Allow Early Chip Start Time:< not set >
Y or N... Allow participants a chip start time prior to gun start?
Pos Race
Number
NameAgeSexTimePace 
1133Darin Schneidewind40M 4:58:28.7 9:26.7
2108JOSH MILLER38M 5:04:52.7 9:38.9
3118Jim Ramacier46M 5:11:18.3 9:51.1
439Glen Delman44M 5:14:48.9 9:57.8
518Brad Bishop24M 5:16:48.5 10:01.5
6134Paul Schoenlaub50M 5:19:03.6 10:05.8
743Jon Docs47M 5:20:44.1 10:09.0
866Kevin grabowski41M 5:25:55.8 10:18.9
971Ed Heller48M 5:30:20.3 10:27.2
10110Nolan Ming34M 5:37:22.4 10:40.6
1175Matt Hosking42M 5:37:53.7 10:41.6
1237Norman Decelles25M 5:38:36.6 10:42.9
1340Michael DeMeritt49M 5:41:40.0 10:48.7
14146Pete Summers48M 5:44:06.4 10:53.4
1589Thomas Keene29M 5:45:36.3 10:56.2
16152Drake Tollenaar41M 5:46:52.7 10:58.6
1751David Eckburg38M 5:50:03.7 11:04.7
18165Don Zimmer46M 5:50:55.8 11:06.3
19107Scott Meyers42M 5:51:42.9 11:07.8
2038David Dehart48M 5:52:56.9 11:10.2
21117Norman Plumstead37M 5:54:42.3 11:13.5
2241Drew Deppen27M 5:54:52.0 11:13.8
2360Dale Fleckenstein46M 5:55:38.8 11:15.3
24150Eric Tadt22M 5:58:27.7 11:20.6
2557Bob Fargo50M 5:58:37.3 11:20.9
2685ERROL JONES60M 6:00:27.5 11:24.4
27135Karen Schoenrock47F 6:00:29.3 11:24.5
28144Dustin Speer29M 6:00:45.8 11:25.0
2930Clint Cherepa31M 6:02:21.8 11:28.0
30164kathleen yarger34F 6:02:22.8 11:28.1
31147Craig Swartwout52M 6:02:38.3 11:28.6
32163Paul Wilkerson34M 6:06:31.5 11:35.9
3353Jason Elliot36M 6:06:58.7 11:36.8
3414Patrick Bene46M 6:09:14.4 11:41.1
3517Brad Birkholz42M 6:09:45.2 11:42.1
3687Diana Karls48F 6:10:19.0 11:43.1
3776David House28M 6:13:05.7 11:48.4
3810Andrew Barrett43M 6:13:07.7 11:48.5
39100steve linzmeyer50M 6:13:14.4 11:48.7
4054Andy Emerson41M 6:13:20.6 11:48.9
4115Allan Benjamin54M 6:13:20.8 11:48.9
4267Brian Gruender35M 6:13:30.2 11:49.2
4352Jennifer Eichelberger39F 6:15:35.1 11:53.1
44127Matthew Santner33M 6:16:26.4 11:54.8
4544Jeff Domenico40M 6:16:26.6 11:54.8
4646craig duhn34M 6:16:51.9 11:55.6
47166Cheryl Zwarkowski52F 6:16:59.6 11:55.8
4893michael koppy59M 6:21:12.0 12:03.8
4999Marc Linhardt38M 6:21:16.2 12:03.9
50112paul norberg58M 6:22:22.4 12:06.0
51161Robert Wehner47M 6:24:42.1 12:10.4
52153Julie Treder34F 6:24:43.4 12:10.5
5382Bob Jasinski41M 6:24:44.2 12:10.5
5464Scott Giddings41M 6:26:38.6 12:14.1
5532Jenny Chow46F 6:28:54.3 12:18.4
5679Dale Humphrey51M 6:29:29.0 12:19.5
57156Jason Voccia28M 6:29:43.0 12:20.0
5896Jeff Landon51M 6:30:38.6 12:21.7
59168David Pontious45M 6:30:48.3 12:22.0
6056Bill Fairfield54M 6:30:52.8 12:22.2
61124Kathleen Rytman42F 6:30:54.8 12:22.2
629jay barclay30M 6:31:07.3 12:22.6
6377Alicia Hudelson25F 6:34:56.6 12:29.9
642Bill Abel37M 6:35:50.6 12:31.6
6555james faford46M 6:37:50.0 12:35.4
6658David Files35M 6:37:51.8 12:35.4
6711Mike Barringer38M 6:38:13.1 12:36.1
6868John Gustafson58M 6:38:52.8 12:37.4
6948Darin Dunham41M 6:39:57.4 12:39.4
70121Steve Riportella44M 6:42:24.4 12:44.1
71132Aaron Schneider32M 6:43:09.4 12:45.5
72125Daryl Saari47M 6:44:07.9 12:47.3
73115Zach Pierce36M 6:44:27.0 12:47.9
7445MICHAEL DOMIN36M 6:44:41.6 12:48.4
75140dallas sigurdur39M 6:44:49.3 12:48.6
7647Kenneth Duncan52M 6:46:03.1 12:51.0
776Susan Baehre51F 6:46:07.0 12:51.1
78126Lynn Saari44F 6:47:14.5 12:53.2
7927John Buzansky48M 6:49:10.8 12:56.9
80102Erik Lund27M 6:49:51.3 12:58.2
8133Benjamin Clark19M 6:50:10.9 12:58.8
8292R. Keith Knepper52M 6:50:20.6 12:59.1
8395Willie Lambert47M 6:51:53.8 13:02.1
84157Coleen Voeks37F 6:52:09.8 13:02.6
85151Bruce Tanksley50M 6:52:32.4 13:03.3
86131linda schillerstrom45F 6:52:45.9 13:03.7
8784Michael Johnson45M 6:53:45.0 13:05.6
88111Joe Neubauer62M 6:57:31.8 13:12.8
8919BrendaU Bland50F 6:57:59.0 13:13.6
9026Renee Bull36F 6:58:21.3 13:14.3
9172Craig Hesselink34M 6:58:30.9 13:14.6
92103Aaron mascarella39M 6:58:58.8 13:15.5
9349Greg Dyck44M 6:59:22.6 13:16.3
9490Ed Kelly57M 7:00:35.4 13:18.6
95143Michael Smithson51M 7:02:05.2 13:21.4
9674Rob Horton38M 7:02:09.5 13:21.6
97128Hillary Schaefer30F 7:02:15.2 13:21.7
98104Andrew Mathews48M 7:02:46.1 13:22.7
9925Seamus Buckley40M 7:03:44.1 13:24.6
10013Matt Bartz35M 7:04:14.5 13:25.5
101141Michael Siltman41M 7:04:24.2 13:25.8
102129Lindsay Scheiwiller28F 7:05:45.0 13:28.4
10365Adam Gifford35M 7:05:46.9 13:28.4
104159Rick Wagar47M 7:06:00.1 13:28.9
10562Stephen Geering55M 7:06:11.6 13:29.2
10629Cynthia Carlson40F 7:07:23.6 13:31.5
107105Michael Matteson51M 7:08:25.0 13:33.4
1088Angela Barbera49F 7:09:21.5 13:35.2
109109Jake Milligan27M 7:10:36.0 13:37.6
110114George Peterka50M 7:11:29.3 13:39.3
111122Andrea Risi38F 7:13:56.8 13:44.0
112158Deb Vomhof48F 7:13:58.7 13:44.0
1131Kristopher Aaron35M 7:14:11.6 13:44.4
11463Michael Gibson38M 7:14:55.5 13:45.8
11594Thomas Krause38M 7:19:32.7 13:54.6
11635Tracy Cook43F 7:19:38.1 13:54.8
11769Dennis Hanna54M 7:20:53.2 13:57.1
11859Mary Flaws43F 7:20:53.6 13:57.1
11998Rich Limacher60M 7:22:00.8 13:59.3
120116Richard Plezia51M 7:24:52.6 14:04.7
121106William Mcalpine36M 7:24:53.9 14:04.7
12212Edward Bartone45M 7:25:13.7 14:05.4
12322Rick Bothwell48M 7:25:29.8 14:05.9
12461Mark French37M 7:27:01.4 14:08.8
125154Laurie Tulchin52F 7:28:47.6 14:12.1
1263Juli Aistars51F 7:31:43.9 14:17.7
12770Rebecca Hansen48F 7:31:56.8 14:18.1
128148Spencer Swearingen32M 7:32:44.5 14:19.6
129123Judy Rowland48F 7:33:27.4 14:21.0
13073Kathy Hoover49F 7:36:27.4 14:26.7
1315Eugene Aquino35M 7:36:31.3 14:26.8
13220Holly Bochantin37F 7:36:50.6 14:27.4
133137Karen Shearer45F 7:36:59.6 14:27.7
13424Michael Brown38M 7:39:54.7 14:33.3
13597Leslie Lewinski28F 7:43:55.5 14:40.9
13628Susan Canevello42F 7:45:10.1 14:43.2
13788Lynn Karner53M 7:45:15.4 14:43.4
138162B.J. Wiedman38M 7:48:58.8 14:50.5
139101Dexter Litwiller35M 7:49:10.8 14:50.8
14091Gabriel King32M 7:49:15.4 14:51.0
141145Phil Stapert44M 7:51:33.3 14:55.4
14286mun h kang63M 7:52:41.5 14:57.5
143149Kazimierz Swistun58M 7:53:55.7 14:59.9
14483Craig Johnson52M 7:54:17.5 15:00.6
14581Ryan Jacobson36M 8:00:48.4 15:12.9
14631Ken Childress50M 8:18:14.1 15:46.0
14736Jean-Jacques d'Aquin71M 8:27:12.6 16:03.1
1487Julie Bane46F 8:27:22.3 16:03.4
14923Timothy Bowers46M 8:35:02.7 16:17.9
150136Misty Schuster33F 8:35:03.0 16:17.9

Event Information
Name of Event:Kettle 100 solo
Distance:100.00
Measurement:Kilometers
Date:Saturday June 5th, 2010
 

Event Information
Name of Event:Kettle 100 relay
Distance:100.00
Measurement:Miles
Date:Saturday June 5th, 2010
 

Event Information
Name of Event:Kettle 38 solo
Distance:38.00
Measurement:Miles
Date:Saturday June 5th, 2010
 

Unless otherwise indicated, all content, photos and art work published on this website are copyright property 2004-2014 of Run Race and may not be republished without verifiable authorization from webmaster@runrace.net. Click for our: Terms and Conditions.